KK5DC Weather Reports


Display with metric or nautical units.
time (UTC)temp
F
wind
direction
speed
MPH
gust
MPH
rain 1hr
in
rain 24hr
in
rain mn
in
humidity
%
barometer
mb
20260505125006 70 205 1.0 4.0 0.00 0.00 0.00 89 1009.1
20260505125004 70 177 6.0 12.0 0.00 0.00 0.00 89 1008.4
20260505124530 70 202 5.0 11.0 0.00 0.00 0.00 88 1008.4
20260505124520 70 193 1.0 4.0 0.00 0.00 0.00 88 1009.2
20260505124011 70 209 1.0 10.0 0.00 0.00 0.00 88 1009.1
20260505124009 70 173 5.0 11.0 0.00 0.00 0.00 88 1008.3
20260505123504 70 178 1.0 10.0 0.00 0.00 0.00 88 1009.0
20260505123502 70 195 6.0 13.0 0.00 0.00 0.00 88 1008.1
20260505123019 70 196 2.0 4.0 0.00 0.00 0.00 88 1009.0
20260505123011 70 234 8.0 13.0 0.00 0.00 0.00 88 1008.2
20260505122504 70 158 5.0 13.0 0.00 0.00 0.00 88 1008.1
20260505122004 70 192 1.0 5.0 0.00 0.00 0.00 88 1008.9
20260505122002 70 221 8.0 13.0 0.00 0.00 0.00 88 1008.1
20260505121512 70 158 7.0 11.0 0.00 0.00 0.00 88 1008.0
20260505121004 70 173 1.0 5.0 0.00 0.00 0.00 88 1008.7
20260505120508 70 195 2.0 4.0 0.00 0.00 0.00 88 1008.7
20260505120504 70 245 5.0 10.0 0.00 0.00 0.00 88 1007.9
20260505120008 70 163 1.0 5.0 0.00 0.00 0.00 87 1008.7
20260505115509 70 158 1.0 5.0 0.00 0.00 0.00 87 1008.5
20260505115506 70 175 6.0 12.0 0.00 0.00 0.00 87 1007.7
20260505115007 70 200 1.0 5.0 0.00 0.00 0.00 87 1008.7
20260505114525 70 220 2.0 5.0 0.00 0.00 0.00 87 1008.7
20260505114522 70 176 7.0 14.0 0.00 0.00 0.00 87 1007.9
20260505114007 70 180 5.0 12.0 0.00 0.00 0.00 87 1007.9
20260505114004 70 238 1.0 4.0 0.00 0.00 0.00 87 1008.6
20260505113509 70 194 1.0 6.0 0.00 0.00 0.00 87 1008.6
20260505113507 70 128 5.0 14.0 0.00 0.00 0.00 87 1007.8
20260505113023 70 167 8.0 14.0 0.00 0.00 0.00 87 1007.8
20260505112504 70 222 2.0 11.0 0.00 0.00 0.00 87 1008.7
20260505112502 70 219 7.0 13.0 0.00 0.00 0.00 87 1008.1
20260505112007 70 242 2.0 8.0 0.00 0.00 0.00 87 1008.7
20260505112003 70 219 6.0 16.0 0.00 0.00 0.00 87 1008.0
20260505111516 70 128 2.0 8.0 0.00 0.00 0.00 87 1008.5
20260505111512 70 191 7.0 16.0 0.00 0.00 0.00 87 1007.9
20260505111006 70 257 7.0 12.0 0.00 0.00 0.00 87 1008.1
20260505110506 70 178 5.0 15.0 0.00 0.00 0.00 87 1008.0
20260505102009 69 167 6.0 12.0 0.00 0.00 0.00 88 1008.3
20260505102007 69 205 2.0 6.0 0.00 0.00 0.00 88 1008.9
20260505101526 69 186 1.0 6.0 0.00 0.00 0.00 88 1008.8
20260505101508 69 185 5.0 11.0 0.00 0.00 0.00 88 1008.1
20260505101006 69 186 1.0 3.0 0.00 0.00 0.00 87 1008.6
20260505101003 69 162 4.0 11.0 0.00 0.00 0.00 87 1007.9
20260505100508 69 173 1.0 5.0 0.00 0.00 0.00 88 1008.6
20260505100504 69 165 6.0 15.0 0.00 0.00 0.00 88 1007.9
20260505100016 69 197 1.0 6.0 0.00 0.00 0.00 88 1008.7
20260505100014 69 178 6.0 15.0 0.00 0.00 0.00 88 1008.1
20260505095506 69 178 7.0 12.0 0.00 0.00 0.00 88 1008.2
20260505095504 69 154 2.0 6.0 0.00 0.00 0.00 88 1008.9
20260505095010 69 217 1.0 5.0 0.00 0.00 0.00 88 1008.9
20260505095006 69 178 6.0 12.0 0.00 0.00 0.00 88 1008.1
20260505094518 69 226 7.0 12.0 0.00 0.00 0.00 88 1008.2
20260505094516 69 172 1.0 5.0 0.00 0.00 0.00 88 1008.8
20260505094006 69 205 1.0 5.0 0.00 0.00 0.00 88 1008.8
20260505093507 69 153 4.0 10.0 0.00 0.00 0.00 88 1008.0
20260505093023 69 196 5.0 10.0 0.00 0.00 0.00 88 1008.2
20260505092510 69 250 1.0 5.0 0.00 0.00 0.00 88 1009.0
20260505092508 69 169 6.0 10.0 0.00 0.00 0.00 88 1008.3
20260505092007 69 192 6.0 11.0 0.00 0.00 0.00 88 1008.3
20260505092004 69 229 1.0 4.0 0.00 0.00 0.00 88 1009.0
20260505091519 69 226 6.0 11.0 0.00 0.00 0.00 87 1008.3
20260505091506 69 185 1.0 6.0 0.00 0.00 0.00 87 1009.0
20260505091008 69 136 6.0 17.0 0.00 0.00 0.00 87 1008.3
20260505091006 69 117 2.0 6.0 0.00 0.00 0.00 87 1009.0
20260505090504 69 229 0.0 4.0 0.00 0.00 0.00 87 1008.8
20260505090018 69 196 6.0 14.0 0.00 0.00 0.00 87 1008.2
20260505090012 69 168 1.0 5.0 0.00 0.00 0.00 87 1008.9
20260505085504 69 207 6.0 14.0 0.00 0.00 0.00 87 1008.2
20260505085007 69 190 6.0 11.0 0.00 0.00 0.00 87 1008.4
20260505085004 69 203 2.0 7.0 0.00 0.00 0.00 87 1009.1
20260505084534 69 195 4.0 11.0 0.00 0.00 0.00 87 1008.5
20260505084517 69 190 1.0 5.0 0.00 0.00 0.00 87 1009.1
20260505084012 69 207 1.0 5.0 0.00 0.00 0.00 87 1009.2
20260505084007 69 202 6.0 12.0 0.00 0.00 0.00 87 1008.6
20260505083507 69 166 6.0 12.0 0.00 0.00 0.00 87 1008.4
20260505083505 69 178 2.0 5.0 0.00 0.00 0.00 87 1009.1
20260505083020 69 147 3.0 9.0 0.00 0.00 0.00 87 1008.5
20260505083012 69 197 1.0 4.0 0.00 0.00 0.00 87 1009.1
20260505082507 69 172 5.0 10.0 0.00 0.00 0.00 87 1008.6
20260505082007 69 206 1.0 6.0 0.00 0.00 0.00 87 1009.3
20260505081528 69 192 5.0 10.0 0.00 0.00 0.00 87 1008.7
20260505081508 69 240 1.0 4.0 0.00 0.00 0.00 87 1009.3
20260505081005 69 201 1.0 4.0 0.00 0.00 0.00 86 1009.3
20260505080506 69 180 5.0 11.0 0.00 0.00 0.00 86 1008.9
20260505080504 69 175 1.0 7.0 0.00 0.00 0.00 86 1009.5
20260505080026 70 192 6.0 14.0 0.00 0.00 0.00 86 1009.0
20260505080008 70 186 1.0 7.0 0.00 0.00 0.00 86 1009.6
20260505075509 70 152 6.0 15.0 0.00 0.00 0.00 86 1009.0
20260505075506 70 202 2.0 6.0 0.00 0.00 0.00 86 1009.6
20260505075007 70 156 8.0 15.0 0.00 0.00 0.00 86 1009.0
20260505075002 70 163 1.0 6.0 0.00 0.00 0.00 86 1009.6
20260505074516 70 198 1.0 5.0 0.00 0.00 0.00 86 1009.7
20260505074514 70 242 4.0 16.0 0.00 0.00 0.00 86 1009.0
20260505074005 70 198 2.0 5.0 0.00 0.00 0.00 86 1009.8
20260505073506 70 209 7.0 15.0 0.00 0.00 0.00 86 1009.2
20260505073504 70 191 2.0 4.0 0.00 0.00 0.00 86 1009.8
20260505073021 70 230 6.0 12.0 0.00 0.00 0.00 86 1009.2
20260505073019 70 189 1.0 3.0 0.00 0.00 0.00 86 1009.8
20260505072509 70 200 6.0 11.0 0.00 0.00 0.00 86 1009.3
20260505072507 70 223 1.0 3.0 0.00 0.00 0.00 86 1009.9
20260505072012 69 166 5.0 11.0 0.00 0.00 0.00 86 1009.4
20260505072003 69 232 1.0 4.0 0.00 0.00 0.00 86 1010.0
20260505071520 69 234 1.0 5.0 0.00 0.00 0.00 86 1010.0
20260505071007 69 182 2.0 5.0 0.00 0.00 0.00 86 1010.0
20260505070509 69 157 5.0 16.0 0.00 0.00 0.00 86 1009.5
20260505070503 69 186 1.0 6.0 0.00 0.00 0.00 86 1010.1
20260505070016 69 200 7.0 16.0 0.00 0.00 0.00 86 1009.5
20260505070013 69 207 1.0 6.0 0.00 0.00 0.00 86 1010.2
20260505065514 69 170 7.0 14.0 0.00 0.00 0.00 86 1009.4
20260505065503 69 226 1.0 7.0 0.00 0.00 0.00 86 1010.1
20260505065012 69 140 4.0 11.0 0.00 0.00 0.00 86 1009.6
20260505065002 69 186 1.0 7.0 0.00 0.00 0.00 86 1010.3
20260505064528 69 158 6.0 11.0 0.00 0.00 0.00 86 1009.7
20260505064511 69 178 1.0 5.0 0.00 0.00 0.00 86 1010.4
20260505064015 69 150 6.0 10.0 0.00 0.00 0.00 86 1009.7
20260505064006 69 198 1.0 3.0 0.00 0.00 0.00 86 1010.4
20260505063506 69 71 1.0 6.0 0.00 0.00 0.00 86 1010.5
20260505063504 69 151 5.0 12.0 0.00 0.00 0.00 86 1009.8
20260505063020 69 186 7.0 12.0 0.00 0.00 0.00 86 1009.9
20260505063008 69 215 2.0 6.0 0.00 0.00 0.00 86 1010.5
20260505062508 69 190 6.0 16.0 0.00 0.00 0.00 85 1010.0
20260505062012 69 224 1.0 16.0 0.00 0.00 0.00 86 1010.7
20260505062008 69 183 7.0 16.0 0.00 0.00 0.00 86 1010.0
20260505061525 69 228 6.0 14.0 0.00 0.00 0.00 86 1010.0
20260505061520 69 241 1.0 4.0 0.00 0.00 0.00 86 1010.7
20260505061009 69 194 5.0 14.0 0.00 0.00 0.00 86 1010.0
20260505061003 69 200 1.0 8.0 0.00 0.00 0.00 86 1010.6
20260505060509 69 165 1.0 8.0 0.00 0.00 0.00 86 1010.5
20260505060028 69 172 1.0 4.0 0.00 0.00 0.00 86 1010.6
20260505060004 69 161 4.0 12.0 0.00 0.00 0.00 86 1009.9
20260505055503 69 207 5.0 15.0 0.00 0.00 0.00 86 1009.8
20260505055004 69 152 2.0 7.0 0.00 0.00 0.00 86 1010.4
20260505055002 69 175 7.0 15.0 0.00 0.00 0.00 86 1009.8
20260505054511 69 169 2.0 7.0 0.00 0.00 0.00 86 1010.3
20260505054505 69 181 7.0 13.0 0.00 0.00 0.00 86 1009.7
20260505054003 69 195 1.0 5.0 0.00 0.00 0.00 86 1010.3
20260505053503 69 190 1.0 8.0 0.00 0.00 0.00 85 1010.3
20260505053018 69 219 1.0 8.0 0.00 0.00 0.00 85 1010.6
20260505053012 69 161 6.0 15.0 0.00 0.00 0.00 85 1009.8
20260505052510 69 151 2.0 5.0 0.00 0.00 0.00 85 1010.3
20260505052503 69 166 5.0 13.0 0.00 0.00 0.00 85 1009.7
20260505052006 69 186 7.0 14.0 0.00 0.00 0.00 85 1009.6
20260505052003 69 148 1.0 5.0 0.00 0.00 0.00 85 1010.2
20260505051521 69 164 1.0 6.0 0.00 0.00 0.00 85 1010.5
20260505051518 69 173 7.0 14.0 0.00 0.00 0.00 85 1009.8
20260505051006 69 174 2.0 6.0 0.00 0.00 0.00 84 1010.6
20260505050511 69 203 2.0 6.0 0.00 0.00 0.00 84 1010.4
20260505050506 69 177 4.0 15.0 0.00 0.00 0.00 84 1009.7
20260505041531 70 154 2.0 9.0 0.00 0.00 0.00 82 1010.8
20260505041504 70 136 6.0 14.0 0.00 0.00 0.00 82 1010.1
20260505041004 71 177 1.0 7.0 0.00 0.00 0.00 82 1010.8
20260505040512 71 148 1.0 7.0 0.00 0.00 0.00 81 1010.7
20260505040508 71 94 6.0 19.0 0.00 0.00 0.00 81 1010.0
20260505040024 71 85 1.0 7.0 0.00 0.00 0.00 81 1010.7
20260505040016 71 174 4.0 19.0 0.00 0.00 0.00 81 1010.0
20260505035509 71 188 2.0 5.0 0.00 0.00 0.00 81 1010.7
20260505035506 71 177 4.0 12.0 0.00 0.00 0.00 81 1010.0
20260505035003 71 198 4.0 14.0 0.00 0.00 0.00 81 1010.1
20260505034523 71 171 2.0 6.0 0.00 0.00 0.00 81 1010.6
20260505034508 71 154 4.0 14.0 0.00 0.00 0.00 81 1010.0
20260505034015 71 217 1.0 6.0 0.00 0.00 0.00 81 1010.7
20260505034003 71 153 5.0 12.0 0.00 0.00 0.00 81 1010.0
20260505033511 71 192 1.0 6.0 0.00 0.00 0.00 80 1010.6
20260505033505 71 176 4.0 10.0 0.00 0.00 0.00 80 1009.9
20260505033019 72 242 2.0 6.0 0.00 0.00 0.00 80 1010.6
20260505033011 72 178 5.0 10.0 0.00 0.00 0.00 80 1010.0
20260505032504 72 200 1.0 7.0 0.00 0.00 0.00 80 1010.6
20260505032502 72 169 5.0 10.0 0.00 0.00 0.00 80 1010.0
20260505032005 72 196 1.0 7.0 0.00 0.00 0.00 80 1010.7
20260505032003 72 161 4.0 10.0 0.00 0.00 0.00 80 1010.0
20260505031517 72 185 1.0 5.0 0.00 0.00 0.00 80 1010.8
20260505031010 72 183 1.0 5.0 0.00 0.00 0.00 79 1010.9
20260505031007 72 152 3.0 9.0 0.00 0.00 0.00 79 1010.2
20260505030509 72 193 1.0 3.0 0.00 0.00 0.00 79 1010.8
20260505030503 72 141 3.0 9.0 0.00 0.00 0.00 79 1010.1
20260505030024 72 109 0.0 3.0 0.00 0.00 0.00 79 1010.8
20260505030008 72 177 4.0 9.0 0.00 0.00 0.00 79 1010.1
20260505025507 72 159 3.0 9.0 0.00 0.00 0.00 79 1010.0
20260505025007 72 174 1.0 5.0 0.00 0.00 0.00 79 1010.7
20260505024526 72 193 2.0 5.0 0.00 0.00 0.00 78 1010.7
20260505024510 72 163 4.0 8.0 0.00 0.00 0.00 78 1009.9
20260505024007 72 153 1.0 4.0 0.00 0.00 0.00 79 1010.6
20260505024002 72 171 3.0 9.0 0.00 0.00 0.00 79 1009.9
20260505023507 72 168 0.0 4.0 0.00 0.00 0.00 78 1010.6
20260505023501 72 144 3.0 8.0 0.00 0.00 0.00 78 1009.9
20260505023032 73 150 1.0 2.0 0.00 0.00 0.00 78 1010.5
20260505023005 73 162 3.0 9.0 0.00 0.00 0.00 78 1009.8
20260505022508 73 171 0.0 5.0 0.00 0.00 0.00 78 1010.6
20260505022502 73 140 2.0 9.0 0.00 0.00 0.00 78 1009.8
20260505022009 73 178 0.0 5.0 0.00 0.00 0.00 77 1010.6
20260505022004 73 161 3.0 8.0 0.00 0.00 0.00 77 1009.8
20260505021516 73 186 4.0 8.0 0.00 0.00 0.00 77 1009.8
20260505021512 73 190 1.0 4.0 0.00 0.00 0.00 77 1010.6
20260505021003 73 181 1.0 4.0 0.00 0.00 0.00 77 1010.5
20260505020507 73 155 3.0 7.0 0.00 0.00 0.00 77 1009.8
20260505020503 73 212 1.0 6.0 0.00 0.00 0.00 77 1010.4
20260505020019 73 167 0.0 6.0 0.00 0.00 0.00 76 1010.1
20260505020017 73 190 3.0 8.0 0.00 0.00 0.00 76 1009.8
20260505015512 73 132 0.0 5.0 0.00 0.00 0.00 76 1010.1
20260505015508 73 144 4.0 7.0 0.00 0.00 0.00 76 1009.7
20260505015007 74 202 1.0 6.0 0.00 0.00 0.00 76 1010.1
20260505014518 74 254 1.0 6.0 0.00 0.00 0.00 75 1010.2
20260505014516 74 159 4.0 9.0 0.00 0.00 0.00 75 1009.8
20260505014007 74 198 0.0 5.0 0.00 0.00 0.00 75 1010.2
20260505013507 74 194 0.0 2.0 0.00 0.00 0.00 75 1010.2
20260505013502 74 150 2.0 7.0 0.00 0.00 0.00 75 1009.8
20260505013016 74 195 0.0 3.0 0.00 0.00 0.00 74 1010.1
20260505013008 74 119 3.0 8.0 0.00 0.00 0.00 74 1009.7
20260505012514 74 194 0.0 4.0 0.00 0.00 0.00 74 1010.1
20260505012502 74 163 3.0 8.0 0.00 0.00 0.00 74 1009.6
20260505012010 74 178 1.0 4.0 0.00 0.00 0.00 73 1010.0
20260505012003 74 159 4.0 8.0 0.00 0.00 0.00 73 1009.4
20260505011531 75 196 1.0 4.0 0.00 0.00 0.00 73 1009.9
20260505011525 75 169 2.0 8.0 0.00 0.00 0.00 73 1009.4
20260505011004 75 165 3.0 8.0 0.00 0.00 0.00 72 1009.5
20260505011002 75 190 1.0 2.0 0.00 0.00 0.00 72 1009.9
20260505010504 75 169 0.0 8.0 0.00 0.00 0.00 71 1010.0
20260505010016 75 166 1.0 6.0 0.00 0.00 0.00 71 1010.1
20260505010014 75 140 4.0 12.0 0.00 0.00 0.00 71 1009.6
20260505005504 75 156 3.0 9.0 0.00 0.00 0.00 71 1009.5
20260505005007 76 142 3.0 13.0 0.00 0.00 0.00 71 1009.4
20260505004532 76 193 1.0 6.0 0.00 0.00 0.00 70 1009.8
20260505004520 76 161 4.0 13.0 0.00 0.00 0.00 70 1009.3
20260505004007 76 256 1.0 6.0 0.00 0.00 0.00 69 1009.8
20260505004003 76 154 4.0 9.0 0.00 0.00 0.00 69 1009.2
20260505003509 77 159 3.0 15.0 0.00 0.00 0.00 69 1009.2
20260505003507 77 215 1.0 3.0 0.00 0.00 0.00 69 1009.7
20260505003023 77 178 1.0 3.0 0.00 0.00 0.00 68 1009.8
20260505003021 77 162 4.0 15.0 0.00 0.00 0.00 68 1009.2
20260505002510 77 167 1.0 3.0 0.00 0.00 0.00 68 1009.9
20260505002503 77 208 5.0 10.0 0.00 0.00 0.00 68 1009.3
20260505002007 77 172 1.0 6.0 0.00 0.00 0.00 67 1009.9
20260505002005 77 155 4.0 12.0 0.00 0.00 0.00 67 1009.4
20260505001521 77 176 1.0 6.0 0.00 0.00 0.00 66 1010.0
20260505001510 77 140 6.0 11.0 0.00 0.00 0.00 66 1009.4
20260505001006 77 172 1.0 6.0 0.00 0.00 0.00 66 1010.0
20260505000510 78 205 3.0 13.0 0.00 0.00 0.00 65 1009.4
20260505000506 78 91 0.0 6.0 0.00 0.00 0.00 65 1010.0
20260505000021 78 149 2.0 6.0 0.00 0.00 0.00 65 1010.0
20260505000016 78 175 6.0 13.0 0.00 0.00 0.00 65 1009.6
20260504235506 78 161 1.0 9.0 0.00 0.00 0.00 65 1010.1
20260504235008 78 183 1.0 9.0 0.00 0.00 0.00 65 1010.2
20260504235003 78 211 4.0 14.0 0.00 0.00 0.00 65 1009.7
20260504234517 78 190 6.0 11.0 0.00 0.00 0.00 65 1009.6
20260504234008 78 196 1.0 6.0 0.00 0.00 0.00 65 1010.2
20260504234006 78 169 5.0 10.0 0.00 0.00 0.00 65 1009.7
20260504233508 78 157 0.0 6.0 0.00 0.00 0.00 64 1010.4
20260504233022 78 182 1.0 6.0 0.00 0.00 0.00 64 1010.3
20260504233012 78 196 4.0 14.0 0.00 0.00 0.00 64 1009.8
20260504232507 80 168 6.0 14.0 0.00 0.00 0.00 62 1009.8
20260504232503 80 173 1.0 8.0 0.00 0.00 0.00 62 1010.2
20260504232011 80 140 7.0 17.0 0.00 0.00 0.00 62 1009.7
20260504232005 80 184 1.0 8.0 0.00 0.00 0.00 62 1010.3
20260504231509 80 192 8.0 17.0 0.00 0.00 0.00 62 1009.8
20260504231505 80 221 2.0 8.0 0.00 0.00 0.00 62 1010.3
20260504231006 80 211 9.0 14.0 0.00 0.00 0.00 62 1009.9
20260504231003 80 194 3.0 7.0 0.00 0.00 0.00 62 1010.5
20260504230503 81 150 2.0 7.0 0.00 0.00 0.00 60 1010.5
20260504230015 82 205 1.0 9.0 0.00 0.00 0.00 60 1010.5
20260504230012 82 165 5.0 13.0 0.00 0.00 0.00 60 1010.0
20260504225506 82 178 6.0 12.0 0.00 0.00 0.00 60 1010.1
20260504225503 82 226 2.0 9.0 0.00 0.00 0.00 60 1010.5
20260504225009 81 92 5.0 12.0 0.00 0.00 0.00 62 1010.1
20260504225007 81 169 1.0 7.0 0.00 0.00 0.00 62 1010.6
20260504224515 81 211 5.0 15.0 0.00 0.00 0.00 62 1010.0
20260504224504 81 237 1.0 8.0 0.00 0.00 0.00 62 1010.5
20260504224010 81 196 7.0 18.0 0.00 0.00 0.00 60 1010.1
20260504224003 81 232 2.0 8.0 0.00 0.00 0.00 60 1010.6
20260504223504 81 177 8.0 18.0 0.00 0.00 0.00 60 1010.2
20260504223025 82 147 4.0 15.0 0.00 0.00 0.00 57 1010.1
20260504223003 82 227 2.0 6.0 0.00 0.00 0.00 57 1010.7
20260504222509 83 184 6.0 17.0 0.00 0.00 0.00 61 1010.2
20260504222503 83 171 1.0 6.0 0.00 0.00 0.00 60 1010.8
20260504222007 83 238 2.0 6.0 0.00 0.00 0.00 58 1010.9
20260504222005 83 148 8.0 17.0 0.00 0.00 0.00 58 1010.3
20260504221519 83 133 6.0 13.0 0.00 0.00 0.00 59 1010.4
20260504221506 83 173 1.0 8.0 0.00 0.00 0.00 59 1010.9
20260504221012 82 168 8.0 14.0 0.00 0.00 0.00 60 1010.3
20260504221002 82 121 3.0 8.0 0.00 0.00 0.00 60 1011.0
20260504220511 82 151 8.0 14.0 0.00 0.00 0.00 59 1010.3
20260504220503 82 177 2.0 7.0 0.00 0.00 0.00 59 1010.9
20260504220016 81 207 5.0 11.0 0.00 0.00 0.00 60 1010.3
20260504220012 81 211 2.0 6.0 0.00 0.00 0.00 60 1011.0
20260504215505 81 160 6.0 13.0 0.00 0.00 0.00 59 1010.3
20260504215006 82 168 2.0 6.0 0.00 0.00 0.00 58 1011.2
20260504215004 82 116 4.0 13.0 0.00 0.00 0.00 58 1010.6
20260504214513 82 220 8.0 12.0 0.00 0.00 0.00 59 1010.6
20260504214008 82 214 3.0 7.0 0.00 0.00 0.00 60 1011.3
20260504214005 82 80 7.0 12.0 0.00 0.00 0.00 60 1010.8
20260504213509 81 205 6.0 12.0 0.00 0.00 0.00 60 1010.8
20260504213507 81 171 2.0 6.0 0.00 0.00 0.00 60 1011.3
20260504213031 82 156 2.0 9.0 0.00 0.00 0.00 57 1011.3
20260504213019 82 163 5.0 18.0 0.00 0.00 0.00 57 1010.9
20260504212509 83 193 7.0 18.0 0.00 0.00 0.00 57 1011.0
20260504212503 83 215 1.0 9.0 0.00 0.00 0.00 57 1011.4
20260504212010 83 207 8.0 12.0 0.00 0.00 0.00 57 1011.0
20260504212004 83 243 3.0 9.0 0.00 0.00 0.00 57 1011.4
20260504211525 83 174 5.0 16.0 0.00 0.00 0.00 57 1011.0
20260504211511 83 180 1.0 4.0 0.00 0.00 0.00 57 1011.5
20260504211003 82 186 2.0 4.0 0.00 0.00 0.00 60 1011.7
20260504210507 80 189 6.0 13.0 0.00 0.00 0.00 60 1011.3
20260504210503 80 201 1.0 6.0 0.00 0.00 0.00 60 1011.9
20260504210024 80 208 6.0 12.0 0.00 0.00 0.00 60 1011.4
20260504210008 80 149 2.0 6.0 0.00 0.00 0.00 60 1012.0
20260504205507 81 151 8.0 16.0 0.00 0.00 0.00 60 1011.3
20260504205503 81 227 1.0 9.0 0.00 0.00 0.00 60 1012.0
20260504205006 81 160 8.0 16.0 0.00 0.00 0.00 58 1011.4
20260504205002 81 193 2.0 12.0 0.00 0.00 0.00 58 1012.0
20260504204515 81 186 9.0 15.0 0.00 0.00 0.00 58 1011.5
20260504204505 81 245 3.0 12.0 0.00 0.00 0.00 58 1012.3
20260504204007 81 150 3.0 15.0 0.00 0.00 0.00 59 1011.8
20260504204002 81 180 1.0 5.0 0.00 0.00 0.00 59 1012.5
20260504203510 82 184 1.0 5.0 0.00 0.00 0.00 57 1012.5
20260504203504 82 196 8.0 14.0 0.00 0.00 0.00 57 1011.7
20260504203019 81 166 7.0 13.0 0.00 0.00 0.00 60 1011.8
20260504202505 82 117 3.0 13.0 0.00 0.00 0.00 58 1012.0
20260504202008 82 196 8.0 12.0 0.00 0.00 0.00 56 1011.9
20260504202004 82 254 3.0 8.0 0.00 0.00 0.00 56 1012.8
20260504201516 82 190 6.0 16.0 0.00 0.00 0.00 57 1012.0
20260504201507 82 49 1.0 7.0 0.00 0.00 0.00 57 1012.8
20260504201008 82 170 6.0 16.0 0.00 0.00 0.00 57 1012.2
20260504201003 82 203 2.0 8.0 0.00 0.00 0.00 57 1012.9
20260504200511 81 178 8.0 16.0 0.00 0.00 0.00 61 1012.1
20260504200502 81 221 3.0 8.0 0.00 0.00 0.00 61 1012.8
20260504200016 80 119 5.0 16.0 0.00 0.00 0.00 60 1012.3
20260504200010 80 163 2.0 7.0 0.00 0.00 0.00 60 1013.0
20260504195507 81 219 7.0 14.0 0.00 0.00 0.00 61 1012.4
20260504195504 81 263 1.0 5.0 0.00 0.00 0.00 61 1013.1
20260504195009 80 209 7.0 14.0 0.00 0.00 0.00 60 1012.3
20260504195003 80 181 1.0 5.0 0.00 0.00 0.00 60 1013.1
20260504194531 82 159 5.0 15.0 0.00 0.00 0.00 58 1012.5
20260504194511 82 208 2.0 5.0 0.00 0.00 0.00 58 1013.2
20260504194006 82 279 1.0 5.0 0.00 0.00 0.00 58 1013.2
20260504193506 82 196 6.0 12.0 0.00 0.00 0.00 58 1012.5
20260504193503 82 289 1.0 10.0 0.00 0.00 0.00 58 1013.4
20260504193017 80 170 5.0 16.0 0.00 0.00 0.00 59 1012.7
20260504193009 80 294 2.0 10.0 0.00 0.00 0.00 59 1013.5
20260504192506 81 146 9.0 15.0 0.00 0.00 0.00 57 1012.8
20260504192010 81 212 7.0 13.0 0.00 0.00 0.00 61 1012.9
20260504191523 80 211 5.0 12.0 0.00 0.00 0.00 63 1013.0
20260504191504 80 171 2.0 9.0 0.00 0.00 0.00 63 1013.7
20260504191008 80 155 1.0 8.0 0.00 0.00 0.00 60 1013.7
20260504190511 81 186 6.0 14.0 0.00 0.00 0.00 58 1013.0
20260504190504 81 297 2.0 8.0 0.00 0.00 0.00 58 1013.7
20260504190025 80 196 7.0 15.0 0.00 0.00 0.00 64 1013.0
20260504190007 80 186 3.0 7.0 0.00 0.00 0.00 64 1013.7
20260504185510 79 204 8.0 14.0 0.00 0.00 0.00 60 1013.1
20260504185506 79 248 2.0 8.0 0.00 0.00 0.00 60 1013.8
20260504185012 81 152 6.0 14.0 0.00 0.00 0.00 61 1013.1
20260504185007 81 172 1.0 10.0 0.00 0.00 0.00 61 1013.8
20260504184525 80 203 8.0 17.0 0.00 0.00 0.00 60 1013.4
20260504184512 80 232 2.0 10.0 0.00 0.00 0.00 60 1014.0
20260504184011 80 214 6.0 17.0 0.00 0.00 0.00 60 1013.5
20260504184003 80 208 2.0 9.0 0.00 0.00 0.00 60 1014.0
20260504183513 80 231 8.0 12.0 0.00 0.00 0.00 63 1013.6
20260504183508 80 219 2.0 7.0 0.00 0.00 0.00 63 1014.2
20260504183021 80 225 1.0 6.0 0.00 0.00 0.00 59 1014.3
20260504182512 80 186 6.0 14.0 0.00 0.00 0.00 61 1013.6
20260504182510 80 205 3.0 8.0 0.00 0.00 0.00 61 1014.3
20260504182007 80 190 8.0 13.0 0.00 0.00 0.00 59 1013.6
20260504182002 80 242 3.0 8.0 0.00 0.00 0.00 59 1014.3
20260504181517 79 190 5.0 14.0 0.00 0.00 0.00 65 1013.7
20260504181008 77 157 2.0 8.0 0.00 0.00 0.00 62 1014.5
20260504180513 78 191 8.0 14.0 0.00 0.00 0.00 62 1013.8
20260504180504 78 231 1.0 10.0 0.00 0.00 0.00 62 1014.5
20260504180030 78 223 9.0 14.0 0.00 0.00 0.00 64 1013.9
20260504180013 78 212 3.0 10.0 0.00 0.00 0.00 64 1014.6
20260504175509 78 144 4.0 16.0 0.00 0.00 0.00 60 1014.0
20260504175504 78 142 1.0 8.0 0.00 0.00 0.00 60 1014.7
20260504175010 79 180 8.0 16.0 0.00 0.00 0.00 62 1014.2
20260504175006 79 165 2.0 8.0 0.00 0.00 0.00 62 1015.1
20260504174528 79 198 6.0 11.0 0.00 0.00 0.00 64 1014.2
20260504174508 79 173 1.0 7.0 0.00 0.00 0.00 64 1015.2
20260504174010 77 199 7.0 12.0 0.00 0.00 0.00 65 1014.3
20260504174004 77 236 3.0 7.0 0.00 0.00 0.00 65 1015.3
20260504173510 77 167 1.0 5.0 0.00 0.00 0.00 64 1015.4
20260504173508 77 184 6.0 12.0 0.00 0.00 0.00 64 1014.4
20260504173027 79 217 6.0 18.0 0.00 0.00 0.00 62 1014.5
20260504173011 79 200 1.0 8.0 0.00 0.00 0.00 62 1015.5
20260504172511 78 178 6.0 18.0 0.00 0.00 0.00 61 1014.5
20260504172503 78 111 2.0 8.0 0.00 0.00 0.00 61 1015.5
20260504172006 79 200 9.0 15.0 0.00 0.00 0.00 64 1014.6
20260504172004 79 153 2.0 6.0 0.00 0.00 0.00 64 1015.5
20260504171539 77 143 8.0 16.0 0.00 0.00 0.00 64 1014.4
20260504171522 77 176 2.0 9.0 0.00 0.00 0.00 64 1015.4
20260504171007 77 192 9.0 16.0 0.00 0.00 0.00 63 1014.4
20260504170511 77 207 9.0 16.0 0.00 0.00 0.00 63 1014.7
20260504170504 77 233 3.0 9.0 0.00 0.00 0.00 63 1015.6
20260504151013 73 202 6.0 15.0 0.00 0.00 0.00 67 1015.5
20260504151008 73 232 1.0 6.0 0.00 0.00 0.00 67 1016.0
20260504150513 73 179 5.0 15.0 0.00 0.00 0.00 67 1015.7
20260504150507 73 123 2.0 6.0 0.00 0.00 0.00 67 1016.3
20260504141006 68 139 5.0 13.0 0.00 0.00 0.00 73 1015.8
20260504140504 67 207 5.0 12.0 0.00 0.00 0.00 73 1015.8